Location: Newark
(30.1000°N, 109.4667°E)
Time: 02:11:11
(UTC+00:00)

A-11 Canister half - Pass Details

Date: 20 February 2020
Orbit: 1516 x 1683 km, 47.2° (Epoch: 06 April)

Event Time Altitude Azimuth Distance (km) Brightness Sun altitude
Rises 12:46:34 0° 300° (WNW) 4,838 12.5 -29.3°
Reaches altitude 10° 12:50:23 10° 312° (NW) 3,824 11.7 -30.2°
Maximum altitude 12:58:30 29° 9° (N) 2,572 10.1 -31.9°
Enters shadow 13:00:11 28° 26° (NNE) 2,627 10.0 -32.3°
